Location: Unspecified
(0.0000°N, 0.0000°E)
Time: 07:19:54
(UTC+00:00)

Vanguard 2 - All Passes

Search period start: 24 September 2023 00:00
Search period end: 04 October 2023 00:00
Orbit: 552 x 2924 km, 32.9° (Epoch: 23 September)

Date Brightness Start Highest point End Pass type
(mag) Time Alt. Az. Time Alt. Az. Time Alt. Az.
24 Sep - 04:31:42 10° WNW 04:35:43 80° SW 04:41:04 10° SE visible
24 Sep - 06:42:01 10° SW 06:45:12 15° SSW 06:49:09 10° SSE daylight
24 Sep - 11:08:09 10° S 11:13:27 13° SSE 11:19:23 10° SE daylight
24 Sep - 13:15:11 10° SSW 13:28:45 33° SSE 13:43:34 10° E daylight
24 Sep - 15:24:53 10° SW 15:42:38 74° SE 15:58:16 10° ENE daylight
24 Sep - 17:38:32 10° WSW 17:55:11 49° NW 18:07:31 10° NE daylight
24 Sep - 20:00:06 10° WNW 20:07:03 15° NNW 20:12:46 10° N visible
25 Sep - 02:41:03 10° N 02:43:36 16° NNE 02:46:09 10° ENE visible
25 Sep - 04:47:41 10° WNW 04:51:34 42° SSW 04:56:42 10° SE visible
25 Sep - 11:23:14 10° S 11:30:33 16° SSE 11:39:05 10° SE daylight
25 Sep - 13:30:32 10° SSW 13:45:09 41° SSE 14:01:00 10° E daylight
25 Sep - 15:40:44 10° SW 15:58:39 89° SE 16:14:15 10° NE daylight
25 Sep - 17:55:38 10° W 18:11:07 39° NW 18:22:49 10° NNE visible
25 Sep - 20:20:54 10° NW 20:23:35 11° NNW 20:26:04 10° NNW visible
26 Sep - 02:55:51 10° NNW 02:59:24 30° NE 03:03:04 10° E visible
26 Sep - 05:04:07 10° W 05:07:34 24° SSW 05:11:54 10° SSE visible
26 Sep - 11:38:18 10° SSW 11:47:26 20° SSE 11:58:18 10° ESE daylight
26 Sep - 13:45:57 10° SW 14:01:23 50° SE 14:17:58 10° ENE daylight
26 Sep - 15:56:47 10° WSW 16:14:37 76° NW 16:30:02 10° NE daylight
26 Sep - 18:13:15 10° W 18:27:12 30° NW 18:37:59 10° NNE visible
27 Sep - 03:11:12 10° NW 03:15:09 61° NE 03:19:19 10° ESE visible
27 Sep - 05:21:16 10° WSW 05:23:43 14° SSW 05:26:31 10° S visible
27 Sep - 11:53:25 10° SSW 12:04:02 25° SSE 12:16:57 10° E daylight
27 Sep - 14:01:28 10° SW 14:17:28 62° SE 14:34:33 10° ENE daylight
27 Sep - 16:13:07 10° WSW 16:30:35 62° NW 16:45:38 10° NE daylight
27 Sep - 18:31:25 10° WNW 18:43:28 24° NNW 18:53:02 10° NNE visible
28 Sep - 01:20:43 10° N 01:22:32 12° NNE 01:24:13 10° NE night (unlit)
28 Sep - 03:26:57 10° WNW 03:30:54 63° SW 03:35:07 10° SE visible
28 Sep - 12:08:34 10° SSW 12:20:24 32° SSE 12:35:01 10° E daylight
28 Sep - 14:17:06 10° SW 14:33:28 76° SE 14:50:51 10° ENE daylight
28 Sep - 16:29:46 10° WSW 16:46:37 50° NW 17:01:06 10° NE daylight
28 Sep - 18:50:15 10° WNW 18:59:58 18° NNW 19:07:59 10° N visible
29 Sep - 01:34:57 10° NNW 01:38:36 21° NNE 01:41:43 10° E night (unlit)
29 Sep - 03:43:08 10° W 03:46:42 31° SSW 03:50:30 10° SSE visible
29 Sep - 10:18:44 10° S 10:23:27 13° SSE 10:28:53 10° SE daylight
29 Sep - 12:23:49 10° SSW 12:36:34 40° SE 12:52:31 10° E daylight
29 Sep - 14:32:55 10° SW 14:49:27 89° NW 15:06:51 10° NE daylight
29 Sep - 16:46:48 10° W 17:02:44 40° NW 17:16:28 10° NNE daylight
29 Sep - 19:09:46 10° NW 19:16:44 14° NNW 19:22:44 10° N visible
30 Sep - 01:50:04 10° NW 01:54:32 39° NNE 01:58:15 10° ESE night (unlit)
30 Sep - 03:59:56 10° WSW 04:02:34 17° SSW 04:05:22 10° SSE visible
30 Sep - 10:33:03 10° S 10:40:03 17° SSE 10:48:41 10° ESE daylight
30 Sep - 12:39:09 10° SW 12:52:35 51° SE 13:09:33 10° ENE daylight
30 Sep - 14:48:56 10° WSW 15:05:27 74° NW 15:22:39 10° NE daylight
30 Sep - 17:04:19 10° W 17:19:03 32° NNW 17:31:45 10° NNE daylight
30 Sep - 19:30:10 10° NW 19:33:45 11° NNW 19:37:02 10° N visible
30 Sep - 23:58:45 10° N 00:01:07 12° NNE 00:03:11 10° NE night (unlit)
01 Oct - 02:05:36 10° NW 02:10:21 78° NE 02:14:16 10° ESE night (unlit)
01 Oct - 10:47:48 10° SSW 10:56:24 23° SE 11:07:35 10° E daylight
01 Oct - 12:54:36 10° SW 13:08:30 64° SE 13:26:10 10° ENE daylight
01 Oct - 15:05:13 10° WSW 15:21:31 60° NW 15:38:17 10° NE daylight
01 Oct - 17:22:20 10° WNW 17:35:33 25° NNW 17:47:00 10° NNE daylight
02 Oct - 00:12:58 10° NNW 00:17:25 19° NNE 00:20:52 10° ENE night (unlit)
02 Oct - 02:21:32 10° WNW 02:26:04 52° SW 02:29:54 10° SE night (unlit)
02 Oct - 11:02:45 10° SSW 11:12:31 30° SE 11:25:44 10° E daylight
02 Oct - 13:10:13 10° SW 13:24:24 78° SE 13:42:29 10° ENE daylight
02 Oct - 15:21:49 10° WSW 15:37:41 49° NNW 15:53:47 10° NE daylight
02 Oct - 17:40:55 10° WNW 17:52:19 20° NNW 18:02:15 10° NNE daylight
03 Oct - 00:27:58 10° NNW 00:33:34 31° NNE 00:37:36 10° E night (unlit)
03 Oct - 02:37:55 10° W 02:41:45 26° SW 02:45:08 10° SSE night (unlit)
03 Oct - 11:17:52 10° SSW 11:28:27 39° SE 11:43:18 10° E daylight
03 Oct - 13:26:00 10° SW 13:40:21 86° NW 13:58:30 10° NE daylight
03 Oct - 15:38:48 10° W 15:54:00 39° NNW 16:09:13 10° NNE daylight
03 Oct - 17:59:58 10° NW 18:09:20 16° NNW 18:17:35 10° NNE visible
03 Oct - 22:35:03 10° NNW 22:39:14 14° NNE 22:42:38 10° NE night (unlit)
